Regional Weather Roundup
Issued by NWS Sterling, VA

Home | Current Version | Previous Version | Text Only | Print | Product List | Glossary On
Versions: 1 2 3 4 5 6 7 8 9 10 11 12 13 14 15 16 17 18 19 20 21 22 23 24 25 26 27 28
000
ASUS41 KLWX 230810
RWRLWX

REGIONAL WEATHER ROUNDUP
NATIONAL WEATHER SERVICE BALTIMORE MD/WASHINGTON DC
400 AM EDT WED APR 23 2014

Note: "FAIR" indicates few or no clouds below 12,000 feet
with no significant weather and/or obstructions to visibility.
 TC=TEMPERATURE CELSIUS

 * =Non NWS site. Station does not report precipitation (e.g. rain,
    snow, etc.), thunder, or fog.

DCZ001-MDZ009-015-VAZ040>042-051-053>054-230900-
WASHINGTON METRO

CITY           SKY/WX    TMP DP  RH WIND       PRES   REMARKS
WASHINGTON NAT PTCLDY    55  34  45 NW21G29   29.69F
DULLES         MOCLDY    50  34  54 W6        29.74R
ANDREWS AFB    PTCLDY    52  33  47 NW13G20   29.69S
FT BELVOIR     PTCLDY    53  33  47 NW15G26   29.71R
QUANTICO       PTCLDY    54  34  46 N12       29.72R
COLLEGE PARK*  PTCLDY    54  32  43 NW15G21   29.69R
LEESBURG*      PTCLDY    50  37  62 N10       29.75R
MANASSAS*      CLEAR     52  36  54 NW17G24   29.71S
GAITHERSBURG*  PTCLDY    48  32  53 W10       29.75R

$$

MDZ006>007-011-014-230900-
BALTIMORE METRO

CITY           SKY/WX    TMP DP  RH WIND       PRES   REMARKS
BWI AIRPORT    PTCLDY    50  33  52 NW24G33   29.67S
MD SCIENCE CTR   N/A     52  33  48 MISG      29.69R
MARTIN STATE   PTCLDY    50  36  57 W17       29.69S
ANNAPOLIS      MOCLDY    54  36  50 NW13G26   29.68R
FORT MEADE*    PTCLDY    50  34  53 NW13G20   29.71R

$$

MDZ012-015-019>023-230900-
MARYLAND EASTERN SHORE

CITY           SKY/WX    TMP DP  RH WIND       PRES   REMARKS
OCEAN CITY     MOCLDY    57  44  62 NW14G31   29.63R
SALISBURY      CLOUDY    57  38  48 NW18G28   29.65R
BAY BRIDGE AP* MOCLDY    52  34  50 NW17G24   29.69R
CAMBRIDGE*     CLOUDY    55  36  47 NW17G25   29.67R
EASTON*        CLOUDY    55  38  51 N21G29    29.72R

$$

MDZ017>025-230900-
SOUTHERN MARYLAND

CITY           SKY/WX    TMP DP  RH WIND       PRES   REMARKS
PATUXENT RIVER CLOUDY    56  41  57 NW20      29.68R
ST INIGOES     CLOUDY    57  40  52 VRB7G18   29.68R
LEONARDTOWN*   CLOUDY    54  37  54 NW9G17    29.70S

$$

MDZ003>005-230900-
NORTH CENTRAL MARYLAND

CITY           SKY/WX    TMP DP  RH WIND       PRES   REMARKS
FREDERICK*     CLEAR     46  37  71 W7        29.75S
HAGERSTOWN APT CLEAR     45  34  65 W14       29.72S
WESTMINSTER*   CLEAR     46  36  66 W7        29.70S

$$

MDZ501>502-230900-
WESTERN MARYLAND

CITY           SKY/WX    TMP DP  RH WIND       PRES   REMARKS
OAKLAND*       CLOUDY    36  32  87 NW12G24   29.75S WCI  27
CUMBERLAND*    PTCLDY    48  32  53 W5G20     29.81R

$$

VAZ025>031-230900-
SHENANDOAH VALLEY

CITY           SKY/WX    TMP DP  RH WIND       PRES   REMARKS
WINCHESTER*    CLEAR     46  32  57 NW12      29.75R
STAUNTON*      PTCLDY    52  32  46 NW6       29.75R

$$

WVZ021-048>050-054>055-230900-
EASTERN WEST VIRGINIA PANHANDLE

CITY           SKY/WX    TMP DP  RH WIND       PRES   REMARKS
MARTINSBURG    CLEAR     48  32  53 NW9       29.74S
PETERSBURG*    PTCLDY    53  38  56 NW15G21   29.78S

$$

VAZ036>039-050-230900-
CENTRAL FOOTHILLS

CITY           SKY/WX    TMP DP  RH WIND       PRES   REMARKS
CHARLOTTESVILL CLEAR     53  41  63 NE10      29.71R
CULPEPER*      CLEAR     55  36  47 N12G17    29.73R

$$

VAZ055>057-230900-
NORTH AND CENTRAL PIEDMONT

CITY           SKY/WX    TMP DP  RH WIND       PRES   REMARKS
FREDERICKSBRG* PTCLDY    55  38  53 N10G16    29.71R
STAFFORD*      PTCLDY    52  39  60 NW14      29.76R

$$

NCZ024-NYZ072-PAZ021-071-VAZ022-071-230900-
OTHER REGIONAL OBSERVATIONS

CITY           SKY/WX    TMP DP  RH WIND       PRES   REMARKS
NEW YORK CITY  CLOUDY    56  43  61 VRB6      29.53S
PHILADELPHIA   MOCLDY    51  31  46 W12G26    29.63S
PITTSBURGH     CLOUDY    40  33  76 NW17      29.85R
ROANOKE        CLEAR     55  28  35 NW10      29.79R
RICHMOND       CLOUDY    58  45  62 N14       29.69R
RALEIGH        PTCLDY    59  53  80 W3        29.71R

$$

ANZ530>537-230900-
MARINE OBSERVATIONS

STATION/POSITION TIME  TEMP    WIND        PRES
                       AIR SEA DIR/SP/G
                 (UTC) (F)     (DEG/KT/KT) (MB)
THOMAS PT LIGHT  0800   53 54  320/ 17/ 21 1005.6R
BALT KEY BRIDGE  0800   53     300/ 21/ 25 1005.3S
COVE POINT       0800   56     350/ 21/ 22 1004.8R
LEWISETTA        0800   57 58  340/ 12/ 17 1005.0R
SOLOMONS ISLAND  0800      56                N/A
PINEY POINT      0800          350/ 16/ 17   N/A

$$




USA.gov is the U.S. government's official web portal to all federal, state and local government web resources and services.